Time,TemperatureF,DewpointF,PressureIn,WindDirection,WindDirectionDegrees,WindSpeedMPH,WindSpeedGustMPH,Humidity,HourlyPrecipIn,Conditions,Clouds,dailyrainin,SolarRadiationWatts/m^2,SoftwareType,DateUTC
2013-08-08 00:42:00,70.0,45.0,-100.00,North,6,8.0,17.0,41,0.00,,,0.14,694.000000,,2013-08-08 00:42:00,
2013-08-08 00:52:00,70.0,45.0,-100.00,North,6,8.0,17.0,41,0.00,,,0.14,694.000000,,2013-08-08 00:52:00,
2013-08-08 01:22:00,71.0,46.0,-100.00,North,3,8.0,13.0,41,0.00,,,0.14,509.000000,,2013-08-08 01:22:00,
2013-08-08 01:32:00,71.0,46.0,-100.00,North,3,8.0,13.0,41,0.00,,,0.14,509.000000,,2013-08-08 01:32:00,
2013-08-08 01:43:00,71.0,46.0,-100.00,North,3,8.0,13.0,41,0.00,,,0.14,509.000000,,2013-08-08 01:43:00,
2013-08-08 01:52:00,71.0,46.0,-100.00,North,3,8.0,13.0,41,0.00,,,0.14,509.000000,,2013-08-08 01:52:00,
2013-08-08 02:32:00,69.0,45.0,-100.00,North,9,7.0,14.0,42,0.00,,,0.14,320.000000,,2013-08-08 02:32:00,
2013-08-08 02:42:00,69.0,45.0,-100.00,North,9,7.0,14.0,42,0.00,,,0.14,320.000000,,2013-08-08 02:42:00,
2013-08-08 02:52:00,69.0,45.0,-100.00,North,9,7.0,14.0,42,0.00,,,0.14,320.000000,,2013-08-08 02:52:00,
2013-08-08 03:22:00,65.0,44.0,-100.00,NE,41,3.0,11.0,47,0.00,,,0.14,115.000000,,2013-08-08 03:22:00,
2013-08-08 03:32:00,65.0,44.0,-100.00,NE,41,3.0,11.0,47,0.00,,,0.14,115.000000,,2013-08-08 03:32:00,
2013-08-08 03:43:00,65.0,44.0,-100.00,NE,41,3.0,11.0,47,0.00,,,0.14,115.000000,,2013-08-08 03:43:00,
2013-08-08 03:52:00,65.0,44.0,-100.00,NE,41,3.0,11.0,47,0.00,,,0.14,115.000000,,2013-08-08 03:52:00,
2013-08-08 04:22:00,62.0,46.0,-100.00,NE,42,8.0,11.0,55,0.00,,,0.14,7.000000,,2013-08-08 04:22:00,
2013-08-08 04:32:00,62.0,46.0,-100.00,NE,42,8.0,11.0,55,0.00,,,0.14,7.000000,,2013-08-08 04:32:00,
2013-08-08 04:43:00,62.0,46.0,-100.00,NE,42,8.0,11.0,55,0.00,,,0.14,7.000000,,2013-08-08 04:43:00,
2013-08-08 04:53:00,62.0,46.0,-100.00,NE,42,8.0,11.0,55,0.00,,,0.14,7.000000,,2013-08-08 04:53:00,
2013-08-08 05:22:00,60.0,45.0,-100.00,NE,45,7.0,12.0,58,0.00,,,0.14,1.000000,,2013-08-08 05:22:00,
2013-08-08 05:33:00,60.0,45.0,-100.00,NE,45,7.0,12.0,58,0.00,,,0.14,1.000000,,2013-08-08 05:33:00,
2013-08-08 05:43:00,60.0,45.0,-100.00,NE,45,7.0,12.0,58,0.00,,,0.14,1.000000,,2013-08-08 05:43:00,
2013-08-08 05:52:00,60.0,45.0,-100.00,NE,45,7.0,12.0,58,0.00,,,0.14,1.000000,,2013-08-08 05:52:00,
2013-08-08 06:32:00,57.0,45.0,-100.00,NNE,23,2.0,11.0,65,0.00,,,0.14,1.000000,,2013-08-08 06:32:00,
2013-08-08 06:43:00,57.0,45.0,-100.00,NNE,23,2.0,11.0,65,0.00,,,0.14,1.000000,,2013-08-08 06:43:00,
2013-08-08 06:52:00,57.0,45.0,-100.00,NNE,23,2.0,11.0,65,0.00,,,0.14,1.000000,,2013-08-08 06:52:00,
2013-08-08 07:43:00,54.0,45.0,-100.00,ENE,61,3.0,6.0,71,0.00,,,0.14,1.000000,,2013-08-08 07:43:00,
2013-08-08 07:53:00,54.0,45.0,-100.00,ENE,61,3.0,6.0,71,0.00,,,0.14,1.000000,,2013-08-08 07:53:00,
2013-08-08 08:22:00,54.0,44.0,-100.00,East,84,3.0,8.0,69,0.00,,,0.14,1.000000,,2013-08-08 08:22:00,
2013-08-08 08:32:00,54.0,44.0,-100.00,East,84,3.0,8.0,69,0.00,,,0.14,1.000000,,2013-08-08 08:32:00,
2013-08-08 08:43:00,54.0,44.0,-100.00,East,84,3.0,8.0,69,0.00,,,0.14,1.000000,,2013-08-08 08:43:00,
2013-08-08 08:52:00,54.0,44.0,-100.00,East,84,3.0,8.0,69,0.00,,,0.14,1.000000,,2013-08-08 08:52:00,
2013-08-08 09:32:00,53.0,43.0,-100.00,ENE,69,4.0,6.0,70,0.00,,,0.14,1.000000,,2013-08-08 09:32:00,
2013-08-08 09:42:00,53.0,43.0,-100.00,ENE,69,4.0,6.0,70,0.00,,,0.14,1.000000,,2013-08-08 09:42:00,
2013-08-08 09:53:00,53.0,43.0,-100.00,ENE,69,4.0,6.0,70,0.00,,,0.14,1.000000,,2013-08-08 09:53:00,
2013-08-08 10:22:00,51.0,43.0,-100.00,ENE,70,5.0,6.0,75,0.00,,,0.14,1.000000,,2013-08-08 10:22:00,
2013-08-08 10:32:00,51.0,43.0,-100.00,ENE,70,5.0,6.0,75,0.00,,,0.14,1.000000,,2013-08-08 10:32:00,
2013-08-08 10:43:00,51.0,43.0,-100.00,ENE,70,5.0,6.0,75,0.00,,,0.14,1.000000,,2013-08-08 10:43:00,
2013-08-08 10:52:00,51.0,43.0,-100.00,ENE,70,5.0,6.0,75,0.00,,,0.14,1.000000,,2013-08-08 10:52:00,
2013-08-08 11:21:00,48.0,43.0,-100.00,ENE,74,6.0,8.0,84,0.00,,,-99.99,1.000000,,2013-08-08 11:21:00,
2013-08-08 11:32:00,48.0,43.0,-100.00,ENE,74,6.0,8.0,84,0.00,,,-99.99,1.000000,,2013-08-08 11:32:00,
2013-08-08 11:43:00,48.0,43.0,-100.00,ENE,74,6.0,8.0,84,0.00,,,-99.99,1.000000,,2013-08-08 11:43:00,
2013-08-08 11:52:00,48.0,43.0,-100.00,ENE,74,6.0,8.0,84,0.00,,,-99.99,1.000000,,2013-08-08 11:52:00,
2013-08-08 12:21:00,46.0,42.0,-100.00,ENE,73,6.0,10.0,87,0.00,,,-99.99,1.000000,,2013-08-08 12:21:00,
2013-08-08 12:32:00,46.0,42.0,-100.00,ENE,73,6.0,10.0,87,0.00,,,-99.99,1.000000,,2013-08-08 12:32:00,
2013-08-08 12:43:00,46.0,42.0,-100.00,ENE,73,6.0,10.0,87,0.00,,,-99.99,1.000000,,2013-08-08 12:43:00,
2013-08-08 12:52:00,46.0,42.0,-100.00,ENE,73,6.0,10.0,87,0.00,,,-99.99,1.000000,,2013-08-08 12:52:00,
2013-08-08 13:32:00,47.0,42.0,-100.00,ENE,67,5.0,9.0,83,0.00,,,0.14,1.000000,,2013-08-08 13:32:00,
2013-08-08 13:43:00,47.0,42.0,-100.00,ENE,67,5.0,9.0,83,0.00,,,0.14,1.000000,,2013-08-08 13:43:00,
2013-08-08 13:52:00,47.0,42.0,-100.00,ENE,67,5.0,9.0,83,0.00,,,0.14,1.000000,,2013-08-08 13:52:00,
2013-08-08 14:32:00,47.0,42.0,-100.00,NNE,29,4.0,10.0,83,0.00,,,0.14,16.000000,,2013-08-08 14:32:00,
2013-08-08 14:43:00,47.0,42.0,-100.00,NNE,29,4.0,10.0,83,0.00,,,0.14,16.000000,,2013-08-08 14:43:00,
2013-08-08 14:52:00,47.0,42.0,-100.00,NNE,29,4.0,10.0,83,0.00,,,0.14,16.000000,,2013-08-08 14:52:00,
2013-08-08 15:32:00,47.0,42.0,-100.00,NE,54,6.0,9.0,83,0.00,,,0.14,47.000000,,2013-08-08 15:32:00,
2013-08-08 15:43:00,47.0,42.0,-100.00,NE,54,6.0,9.0,83,0.00,,,0.14,47.000000,,2013-08-08 15:43:00,
2013-08-08 15:52:00,47.0,42.0,-100.00,NE,54,6.0,9.0,83,0.00,,,0.14,47.000000,,2013-08-08 15:52:00,
2013-08-08 16:32:00,52.0,45.0,-100.00,NE,52,6.0,9.0,76,0.00,,,0.14,152.000000,,2013-08-08 16:32:00,
2013-08-08 16:42:00,52.0,45.0,-100.00,NE,52,6.0,9.0,76,0.00,,,0.14,152.000000,,2013-08-08 16:42:00,
2013-08-08 16:52:00,52.0,45.0,-100.00,NE,52,6.0,9.0,76,0.00,,,0.14,152.000000,,2013-08-08 16:52:00,
2013-08-08 17:32:00,60.0,46.0,-100.00,NE,41,7.0,12.0,60,0.00,,,0.14,374.000000,,2013-08-08 17:32:00,
2013-08-08 17:43:00,60.0,46.0,-100.00,NE,41,7.0,12.0,60,0.00,,,0.14,374.000000,,2013-08-08 17:43:00,
2013-08-08 17:52:00,60.0,46.0,-100.00,NE,41,7.0,12.0,60,0.00,,,0.14,374.000000,,2013-08-08 17:52:00,
2013-08-08 18:21:00,66.0,46.0,-100.00,ENE,63,5.0,10.0,48,0.00,,,0.13,574.000000,,2013-08-08 18:21:00,
2013-08-08 18:32:00,66.0,46.0,-100.00,ENE,63,5.0,10.0,48,0.00,,,0.13,574.000000,,2013-08-08 18:32:00,
2013-08-08 18:43:00,66.0,46.0,-100.00,ENE,63,5.0,10.0,48,0.00,,,0.13,574.000000,,2013-08-08 18:43:00,
2013-08-08 18:52:00,66.0,46.0,-100.00,ENE,63,5.0,10.0,48,0.00,,,0.13,574.000000,,2013-08-08 18:52:00,
2013-08-08 19:22:00,70.0,45.0,-100.00,NNE,31,8.0,16.0,40,0.00,,,0.13,491.000000,,2013-08-08 19:22:00,
2013-08-08 19:32:00,70.0,45.0,-100.00,NNE,31,8.0,16.0,40,0.00,,,0.13,491.000000,,2013-08-08 19:32:00,
2013-08-08 19:43:00,70.0,45.0,-100.00,NNE,31,8.0,16.0,40,0.00,,,0.13,491.000000,,2013-08-08 19:43:00,
2013-08-08 19:53:00,70.0,45.0,-100.00,NNE,31,8.0,16.0,40,0.00,,,0.13,491.000000,,2013-08-08 19:53:00,
2013-08-08 20:22:00,74.0,42.0,-100.00,NE,55,7.0,16.0,32,0.00,,,0.11,763.000000,,2013-08-08 20:22:00,
2013-08-08 20:32:00,74.0,42.0,-100.00,NE,55,7.0,16.0,32,0.00,,,0.11,763.000000,,2013-08-08 20:32:00,
2013-08-08 20:42:00,74.0,42.0,-100.00,NE,55,7.0,16.0,32,0.00,,,0.11,763.000000,,2013-08-08 20:42:00,
2013-08-08 20:52:00,74.0,42.0,-100.00,NE,55,7.0,16.0,32,0.00,,,0.11,763.000000,,2013-08-08 20:52:00,
2013-08-08 21:22:00,76.0,40.0,-100.00,ENE,69,6.0,12.0,27,0.00,,,0.05,701.000000,,2013-08-08 21:22:00,
2013-08-08 21:33:00,76.0,40.0,-100.00,ENE,69,6.0,12.0,27,0.00,,,0.05,701.000000,,2013-08-08 21:33:00,
2013-08-08 21:42:00,76.0,40.0,-100.00,ENE,69,6.0,12.0,27,0.00,,,0.05,701.000000,,2013-08-08 21:42:00,
2013-08-08 21:52:00,76.0,40.0,-100.00,ENE,69,6.0,12.0,27,0.00,,,0.05,701.000000,,2013-08-08 21:52:00,
2013-08-08 22:22:00,76.0,41.0,-100.00,ENE,58,5.0,10.0,28,0.00,,,0.00,409.000000,,2013-08-08 22:22:00,
2013-08-08 22:33:00,76.0,41.0,-100.00,ENE,58,5.0,10.0,28,0.00,,,0.00,409.000000,,2013-08-08 22:33:00,
2013-08-08 22:46:00,76.0,41.0,-100.00,ENE,58,5.0,10.0,28,0.00,,,0.00,409.000000,,2013-08-08 22:46:00,
2013-08-08 22:53:00,76.0,41.0,-100.00,ENE,58,5.0,10.0,28,0.00,,,0.00,409.000000,,2013-08-08 22:53:00,
2013-08-08 23:44:00,75.0,39.0,-100.00,SE,130,6.0,15.0,27,0.00,,,0.00,418.000000,,2013-08-08 23:44:00,
2013-08-08 23:53:00,75.0,39.0,-100.00,SE,130,6.0,15.0,27,0.00,,,0.00,418.000000,,2013-08-08 23:53:00,